This is the latest recevied weather packets stored in our database for station/object DB0LC-2. If no packets are shown the sender has not sent any weather packets the latest 1 day(s).
| Time | Temp. | Humidity | Pressure | Rain* | Wind** | Luminosity | Snow |
|---|---|---|---|---|---|---|---|
| 1777979841 | 20° C | 31% | 905.6 hPa | 0 mm | 0 m/s | - | - |
| 1777979217 | 20° C | 31% | 905.6 hPa | 0 mm | 0 m/s | - | - |
| 1777978592 | 19.44° C | 32% | 905.7 hPa | 0 mm | 0 m/s | - | - |
| 1777977980 | 19.44° C | 31% | 905.8 hPa | 0 mm | 0 m/s | - | - |
| 1777977367 | 20° C | 29% | 905.7 hPa | 0 mm | 0 m/s | - | - |
| 1777976757 | 20° C | 31% | 905.8 hPa | 0 mm | 0 m/s | - | - |
| 1777976138 | 19.44° C | 31% | 905.9 hPa | 0 mm | 0 m/s | - | - |
| 1777975482 | 19.44° C | 31% | 905.7 hPa | 0 mm | 0 m/s | - | - |
| 1777974858 | 19.44° C | 30% | 905.8 hPa | 0 mm | 0 m/s | - | - |
| 1777974235 | 20° C | 31% | 905.6 hPa | 0 mm | 0 m/s | - | - |
| 1777974234 | 20° C | 31% | 905.7 hPa | 0 mm | 0 m/s | - | - |
| 1777972998 | 19.44° C | 31% | 905.8 hPa | 0 mm | 0 m/s | - | - |
| 1777972351 | 20° C | 29% | 905.9 hPa | 0 mm | 0 m/s | - | - |
| 1777971039 | 19.44° C | 31% | 905.9 hPa | 0 mm | 0 m/s | - | - |
| 1777970372 | 19.44° C | 31% | 905.9 hPa | 0 mm | 0 m/s | - | - |
| 1777970370 | 19.44° C | 31% | 905.8 hPa | 0 mm | 0 m/s | - | - |
| 1777969718 | 20° C | 28% | 906 hPa | 0 mm | 0 m/s | - | - |
| 1777969112 | 20° C | 31% | 906 hPa | 0 mm | 0 m/s | - | - |
| 1777968473 | 19.44° C | 31% | 906.1 hPa | 0 mm | 0 m/s | - | - |
| 1777967823 | 19.44° C | 31% | 906 hPa | 0 mm | 0 m/s | - | - |
| 1777967161 | 18.89° C | 30% | 906.2 hPa | 0 mm | 0 m/s | - | - |
| 1777966524 | 20° C | 31% | 906.3 hPa | 0 mm | 0 m/s | - | - |
| 1777966523 | 20° C | 31% | 906.2 hPa | 0 mm | 0 m/s | - | - |
| 1777965898 | 19.44° C | 31% | 906.2 hPa | 0 mm | 0 m/s | - | - |
| 1777965262 | 19.44° C | 31% | 906.3 hPa | 0 mm | 0 m/s | - | - |
* Rain latest hour (hover to see other rain measurements)
** Current wind speed in m/s (hover to see current wind gust speed)